Home > Weather > Citrus Heights > Past weeks

Flag for USA Weather for the Past 2 Weeks in Citrus Heights, California, USA

Now
79 °F

Sunny.


Feels Like: 78 °F
Forecast: 48 / 78 °F
Wind: 15 mph from North

Location: Mather Field

Current Time: Apr 28, 2016 at 5:38:12 PM

Latest Report: Apr 28, 2016 at 4:45 PM


Visibility: 10 mi

Pressure: 29.82 "Hg

Humidity: 23%

Dew Point: 37 °F

Location of Citrus HeightsLocation

Historic Weather in Citrus Heights — Graph

°F

Citrus Heights Temperature Yesterday

Maximum temperature yesterday: 66 °F (at 12:45 PM)
Minimum temperature yesterday: 45 °F (at 2:55 AM)
Average temperature yesterday: 54 °F

High & Low Weather Summary for the Past Weeks

 TemperatureHumidityPressure
High86 °F (Apr 18, 3:55 PM)100% (Apr 21, 2:55 AM)30.20 "Hg (Apr 21, 2:55 AM)
Low41 °F (Apr 16, 6:55 AM)17% (Apr 20, 12:45 PM)29.80 "Hg (Apr 22, 6:45 AM)
Average61 °F59%29.98 "Hg
* Reported Apr 13 3:45 PM — Apr 28 3:45 PM, Citrus Heights, Weather by CustomWeather, © 2016

Note: Actual official high and low records may vary slightly from our data, if they occured in-between our weather recording intervals... More about our weather records

Advertising

Citrus Heights Weather History for the Previous 24 Hours

Scroll right to see more
 ConditionsComfort  
Time TempWeatherWind HumidityBarometerVisibility
3:45 PM
Thu, Apr 28
79 °FSunny.12 mph21%29.83 "Hg10 mi
2:45 PM79 °FSunny.16 mph21%29.84 "Hg10 mi
1:45 PM77 °FSunny.16 mph24%29.84 "Hg10 mi
12:45 PM75 °FSunny.12 mph27%29.85 "Hg10 mi
11:45 AM73 °FSunny.15 mph31%29.86 "Hg10 mi
10:45 AM68 °FSunny.12 mph43%29.86 "Hg10 mi
9:45 AM63 °FSunny.14 mph56%29.86 "Hg10 mi
8:55 AM57 °FSunny.9 mph72%29.86 "Hg10 mi
7:45 AM48 °FSunny.5 mph100%29.85 "Hg10 mi
6:45 AM43 °FClear.No wind100%29.84 "Hg10 mi
5:45 AM43 °FClear.No wind100%29.83 "Hg10 mi
4:55 AM45 °FClear.No wind93%29.82 "Hg10 mi
3:55 AM45 °FClear.No wind100%29.82 "Hg10 mi
2:55 AM43 °FClear.3 mph100%29.81 "Hg10 mi
11:30 PM
Wed, Apr 27
48 °FClear.3 mph94%29.84 "Hg10 mi
10:45 PM48 °FClear.3 mph94%29.84 "Hg10 mi
9:48 PM50 °FClear.No wind94%29.84 "Hg10 mi
8:45 PM52 °FScattered clouds.3 mph94%29.84 "Hg10 mi
7:45 PM55 °FPartly sunny.5 mph82%29.82 "Hg10 mi
6:58 PM57 °FPartly sunny.5 mph77%29.83 "Hg10 mi
5:45 PM54 °FOvercast.9 mph82%29.85 "Hg10 mi
Weather by CustomWeather, © 2016

See weather overviewHow to use our weather pages